Regional Weather Roundup
Issued by NWS Charleston, SC

Current Version | Previous Version | Graphics & Text | Print | Product List | Glossary On
Versions: 1 2 3 4 5 6 7 8 9 10 11 12 13 14 15 16 17 18 19 20 21 22 23 24 25 26 27 28 29 30 31 32 33 34 35 36 37 38 39 40 41 42 43 44 45 46 47 48 49 50
000 ASUS42 KCHS 150212 RWRCHS REGIONAL WEATHER ROUNDUP NATIONAL WEATHER SERVICE CHARLESTON SC 900 PM EST THU DEC 14 2017 NOTE: "FAIR" INDICATES FEW OR NO CLOUDS BELOW 12,000 FEET WITH NO SIGNIFICANT WEATHER AND/OR OBSTRUCTIONS TO VISIBILITY. NOT ALL STATIONS ARE QUALITY CONTROLLED. USE DATA WITH CAUTION... ESPECIALLY DEWPOINT OBSERVATIONS. SCZ027-030-031-034>040-042>050-150300- ...SOUTHEAST SOUTH CAROLINA... CITY SKY/WX TMP DP RH WIND PRES REMARKS N CHARLESTON CLOUDY 46 42 86 SW7 29.99S WATERFRONT PRK N/A 52 46 80 CALM 29.85R JOHNS ISLAND FAIR 50 45 81 SW3 30.00S PINOPOLIS N/A 52 43 71 SW6 29.90R MONCKS CORNER FAIR 48 37 66 CALM 29.98S SUMMERVILLE FAIR 45 41 87 CALM 30.00R BEAUFORT MCAS CLOUDY 47 43 86 SW5 30.00S BEAUFORT ARPT FAIR 46 43 87 S5 30.00S HILTON HEAD IS PTCLDY 48 45 87 SW5 30.01S WALTERBORO CLOUDY 45 39 81 CALM 30.00R ALLENDALE CLOUDY 50 37 62 CALM 29.98S ...SOUTHERN MIDLANDS AND PEE DEE... CITY SKY/WX TMP DP RH WIND PRES REMARKS GEORGETOWN FAIR 43 43 100 CALM 30.00R KINGSTREE FAIR 41 37 87 CALM 29.98S ORANGEBURG CLOUDY 46 37 71 SW3 29.98R BARNWELL N/A 48 37 66 CALM 29.98R AIKEN FAIR 45 34 65 SW6 30.00R MANNING FAIR 43 28 56 MISG 29.98S COLUMBIA CLOUDY 47 37 68 W3 29.97R SUMTER CLOUDY 46 34 63 SW5 29.95R FLORENCE CLOUDY 41 35 79 CALM 29.98R MYRTLE BEACH CLOUDY 45 42 89 CALM 30.00R N MYRTLE BEACH CLOUDY 43 42 97 CALM 29.98S $$ GAZ063-065-086>088-099>101-113>116-118-119-134>141-150-150300- ...SOUTHEAST GEORGIA... CITY SKY/WX TMP DP RH WIND PRES REMARKS SAVANNAH ARPT CLOUDY 53 39 59 SW3 30.02R HUNTER AAF CLOUDY 50 39 66 SW2 29.99R FORT STEWART PTCLDY 46 40 81 CALM 30.00R STATESBORO CLOUDY 44 38 78 CALM 30.00S SYLVANIA CLOUDY 46 45 97 CALM 30.01S CLAXTON FAIR 48 43 83 CALM 30.01R ...CSRA...CENTRAL AND FAR SOUTHEAST GEORGIA... CITY SKY/WX TMP DP RH WIND PRES REMARKS THOMSON CLOUDY 43 36 78 CALM 30.03R AUGUSTA-BUSH CLOUDY 44 37 76 CALM 29.98R AUGUSTA-DANIEL CLOUDY 51 36 56 VRB3 29.98R SWAINSBORO FAIR 45 45 100 CALM 30.01R VIDALIA CLOUDY 50 41 71 CALM 30.01R EASTMAN FAIR 47 34 62 CALM 30.03R HAZLEHURST FAIR 47 36 64 SW3 30.01R ALMA CLEAR 42 39 89 CALM 30.02R WAYCROSS CLEAR 46 38 75 CALM 30.04R JESUP NOT AVBL BAXLEY FAIR 41 41 100 CALM 30.02R BRUNSWICK PTCLDY 43 39 87 CALM 30.03R SAINT SIMONS PTCLDY 50 42 74 CALM 30.03R $$ SCZ027-028-034-036>038-045-046-048>050-GAZ119-141-150300- ...LAKE AND SUPPLEMENTAL COASTAL OBSERVATIONS... STATION/POSITION TIME TEMP WIND PRES WAVE SWELL AIR SEA DIR/SP/G HT/PER HT/PER/DIR (UTC) (F) (DEG/KT/KT) (MB) (FT/S) (FT/S/D) WINYAH BAY NOT AVBL LAKE MURRAY 0120 54 230/ 10/ 11 1013.5 ACE BASIN NERRS 0045 48 CALM 1015.0 FORT PULASKI 0136 52 54 210/ 3/ 4 1016.1F SAPELO ISLAND 0100 52 190/ 4 1016.0 $$ ANZ835-935-AMZ111-154-330-350-352-354-370-450-454-472-150300- ...C-MAN AND BUOY OBSERVATIONS... STATION/POSITION TIME TEMP WIND PRES WAVE SWELL AIR SEA DIR/SP/G HT/PER HT/PER/DIR (UTC) (F) (DEG/KT/KT) (MB) (FT/S) (FT/S/D) BUOY 41004 0150 71 260/ 16/ 21 1015.7R 4/ 6 BUOY 41008 0150 60 59 230/ 10/ 12 1016.7R 1/ 4 FOLLY BEACH CMAN 0100 53 230/ 6/ 8 1016.0R CAPERS NEARSHORE 0108 51 55 250/ 8/ 12 1015.2R FRIPP NEARSHORE 0108 53 55 210/ 8/ 16 1014.9R STATION/POSITION TIME TEMP WIND PRES WAVE SWELL AIR SEA DIR/SP/G HT/PER HT/PER/DIR (UTC) (F) (DEG/KT/KT) (MB) (FT/S) (FT/S/D) 5E ST. MARYS GA 0130 62 N/A 1/11 FRYING PAN BUOY 0150 60 66 280/ 14/ 17 1015.2R 5/ 7 3/200/ 7 BUOY 41025 0150 56 74 10/ 6/ 12 1015.7R 6/ 8 7/200/ 8 CAPE LOOKOUT NC 0100 10/ 5/ 5 1015.7R BUOY 41002 0150 70 74 260/ 21/ 25 1015.8R 8/ 8 3/100/19 BUOY 41010 NOT AVBL ST AUGUSTINE FL 0200 64 63 210/ 5/ 5 1017.8R $$

USA.gov is the U.S. government's official web portal to all federal, state and local government web resources and services.